Find Kosmos-2549

NORAD ID: 47546 Int'l Des: 2021-008 Owner: VVKOV Country: RU operational
LEOCIRCULAR

Live Position

Loading 3D Globe...

About Kosmos-2549

Description loading...

Upcoming Passes

Passes for default location (London). Set your location on the main map for personalized predictions.

Altitude History

Loading altitude history...

Two-Line Element Set

1 47546U 21008A 26106.96414374 -.00000049 00000-0 19119-4 0 9999
2 47546 67.1477 133.9501 0006124 262.8373 97.2016 13.97016513265280
Epoch: Apr 16, 2026 • Age: 10 hours

Current Status

Altitude 924.1 km
Velocity 7.39 km/s
Sub-Earth Point -66.58°S, 48.05°E
Launch Date Feb 2, 2021
Age 5.2 years
Type other

Technical Details

Classification Payload
Mass 6575.00 kg
Dry Mass 6500.00 kg
Total Mass 6575.00 kg
Length 6.30 m
Diameter 2.70 m
Span 6.30 m
Shape Cyl + 2 Pan
Manufacturer TSSKBP/ARSLO
Bus Type Yantar'-Lotos
Phase Status In Orbit
Owner/State VVKOV/RU

Most Searched